Simultaneous Nadir Overpasses (SNOs) Predictions

Prediction of SNOs between LANDSAT-8 and NOAA-19 Satellite Orbit:

Table of predicted SNOs for the next 14.0 days since TLE Epoch: 12/31/2022
Index Date (LANDSAT-8) Time (LANDSAT-8) Lat,Lon (LANDSAT-8) SZA (LANDSAT-8 ) Date (NOAA-19) Time (NOAA-19) Lat,Lon (NOAA-19) SZA (NOAA-19 ) Distance(km) Time Diff (sec)
1 01/01/2023 17:25:17 -80.92, 135.60 74.50 01/01/2023 17:24:46 -80.91, 135.71 74.51 2.26 31
2 01/01/2023 18:14:43 80.92, -56.71 105.51 01/01/2023 18:15:40 80.91, -56.85 105.50 2.89 57
3 01/03/2023 23:48:28 -80.90, 39.60 74.77 01/03/2023 23:48:31 -80.91, 39.51 74.77 2.00 3
4 01/06/2023 05:22:11 80.90, 136.20 104.98 01/06/2023 05:21:11 80.91, 136.04 104.95 2.94 60
5 01/06/2023 06:11:38 -80.90, -56.16 75.03 01/06/2023 06:12:14 -80.91, -56.03 75.00 2.32 36
6 01/08/2023 11:45:20 80.92, 40.66 104.71 01/08/2023 11:44:54 80.91, 40.52 104.68 2.82 26
7 01/08/2023 12:34:48 -80.90,-152.02 75.35 01/08/2023 12:35:58 -80.91,-152.00 75.31 1.27 70
8 01/10/2023 18:08:30 80.91, -55.33 104.33 01/10/2023 18:08:38 80.91, -55.43 104.33 1.77 8
9 01/12/2023 23:42:13 -80.91, 41.31 76.03 01/12/2023 23:41:27 -80.91, 41.14 76.06 3.10 46



Historial Predications of SNOs between LANDSAT-8 and NOAA-19
